Home   Weather   Terre Haute   Past weeks

Flag for USA Past Weather in Terre Haute, Indiana, USA — Yesterday and Last 2 Weeks

Now
38 °F

Low clouds.


Feels Like: 31 °F
Forecast: 36 / 44 °F
Wind: 10 mph from Northwest

Location: Terre Haute International Airport - Hulman Field

Current Time: Jan 18, 2017 at 5:10:32 am

Latest Report: Jan 18, 2017 at 3:53 am


Visibility: 10 mi

Pressure: 30.16 "Hg

Humidity: 86%

Dew Point: 34 °F

Location of Terre HauteLocation

Past Weather in Terre Haute — Graph

°F

Terre Haute Temperature Yesterday

Maximum temperature yesterday: 57 °F (at 2:53 am)
Minimum temperature yesterday: 39 °F (at 11:25 pm)
Average temperature yesterday: 47 °F

High & Low Weather Summary for the Past Weeks

 TemperatureHumidityPressure
High63 °F (Jan 11, 8:53 pm)97% (Jan 3, 3:31 am)30.83 "Hg (Jan 3, 3:31 am)
Low-1 °F (Jan 7, 4:53 am)41% (Jan 8, 2:53 pm)29.58 "Hg (Jan 10, 3:53 pm)
Average33 °F80%30.20 "Hg
* Reported Jan 3 3:31 am — Jan 18 3:53 am, Terre Haute, Weather by CustomWeather, © 2017

Note: Actual official high and low records may vary slightly from our data, if they occured in-between our weather recording intervals... More about our weather records

Advertising

Terre Haute Weather History for the Previous 24 Hours

Scroll right to see more
 ConditionsComfort  
Time TempWeatherWind HumidityBarometerVisibility
3:53 am
Wed, Jan 18
38 °FLow clouds.10 mph86%30.16 "Hg10 mi
2:53 am38 °FLow clouds.10 mph86%30.15 "Hg10 mi
2:27 am38 °FLow clouds.10 mph90%30.13 "Hg9 mi
1:53 am38 °FMostly cloudy.9 mph86%30.13 "Hg9 mi
1:35 am38 °FMostly cloudy.9 mph83%30.12 "Hg10 mi
12:53 am38 °FMostly cloudy.13 mph86%30.12 "Hg9 mi
12:05 am39 °FOvercast.9 mph82%30.11 "Hg10 mi
11:53 pm
Tue, Jan 17
39 °FOvercast.10 mph82%30.12 "Hg10 mi
11:25 pm39 °FOvercast.12 mph86%30.10 "Hg10 mi
10:53 pm40 °FOvercast.12 mph86%30.11 "Hg10 mi
10:12 pm40 °FOvercast.13 mph86%30.10 "Hg8 mi
9:53 pm41 °FMostly cloudy.12 mph82%30.10 "Hg10 mi
8:53 pm42 °FOvercast.10 mph82%30.08 "Hg10 mi
8:03 pm42 °FMostly cloudy.12 mph89%30.07 "Hg8 mi
6:53 pm43 °FMostly cloudy.8 mph93%30.05 "Hg10 mi
5:53 pm43 °FMostly cloudy.8 mph93%30.03 "Hg9 mi
5:36 pm44 °FMostly cloudy.8 mph89%30.03 "Hg7 mi
5:20 pm44 °FFog.10 mph89%30.03 "Hg5 mi
5:02 pm44 °FFog.10 mph85%30.01 "Hg5 mi
3:53 pm45 °FOvercast.15 mph82%29.98 "Hg10 mi
2:53 pm45 °FOvercast.12 mph82%29.97 "Hg10 mi
1:53 pm46 °FOvercast.13 mph79%29.96 "Hg10 mi
1:08 pm46 °FOvercast.15 mph79%29.96 "Hg10 mi
12:53 pm46 °FOvercast.12 mph79%29.96 "Hg10 mi
11:53 am47 °FOvercast.12 mph77%29.96 "Hg10 mi
10:53 am47 °FOvercast.12 mph74%29.96 "Hg10 mi
9:53 am47 °FOvercast.15 mph74%29.95 "Hg10 mi
8:53 am49 °FOvercast.13 mph80%29.92 "Hg10 mi
8:22 am49 °FOvercast.12 mph84%29.92 "Hg10 mi
7:53 am50 °FOvercast.10 mph83%29.91 "Hg10 mi
6:53 am52 °FOvercast.8 mph83%29.88 "Hg10 mi
6:40 am51 °FMostly cloudy.9 mph86%29.89 "Hg10 mi
6:06 am52 °FMostly cloudy.15 mph89%29.87 "Hg10 mi
5:53 am52 °FMostly cloudy.7 mph89%29.87 "Hg10 mi
Weather by CustomWeather, © 2017

See weather overviewHow to use our weather pages